DLH9901 EDDS-EDDF

Flight info

Callsign DLH9901
Flight time 0h 28m
Altitude 22000
Route ETASA T163 SPESA
Aircraft A359/H-SDE2E3GHIJ3J4J5LM1ORWXY/LB1D1

Departure

Time 2026-05-07 19:28
Airport Stuttgart Airport (EDDS)

Arrival

Time 2026-05-07 19:56
Airport Frankfurt Main Airport (EDDF)
Time Latitude Longitude Altitude Speed Heading
2026-05-07 19:27 48.66672 9.06963 4982 ft 263 kts 279°
2026-05-07 19:28 48.67364 9.04435 4989 ft 263 kts 307°
2026-05-07 19:28 48.68808 9.02790 5173 ft 265 kts 339°
2026-05-07 19:28 48.70653 9.02393 5924 ft 269 kts 359°
2026-05-07 19:28 48.72515 9.02615 6907 ft 271 kts
2026-05-07 19:29 48.74372 9.03302 7786 ft 277 kts 17°
2026-05-07 19:29 48.76163 9.04447 8654 ft 283 kts 26°
2026-05-07 19:29 48.78001 9.05536 9485 ft 286 kts 13°
2026-05-07 19:29 48.79954 9.06251 10313 ft 292 kts 10°
2026-05-07 19:30 48.82004 9.06841 10719 ft 311 kts
2026-05-07 19:30 48.84218 9.07371 11080 ft 330 kts
2026-05-07 19:30 48.86534 9.07925 11604 ft 341 kts
2026-05-07 19:30 48.88880 9.08515 12297 ft 346 kts
2026-05-07 19:31 48.91278 9.09135 12989 ft 350 kts
2026-05-07 19:31 48.93668 9.09761 13652 ft 355 kts
2026-05-07 19:31 48.96106 9.10404 13992 ft 358 kts
2026-05-07 19:31 48.98570 9.11058 14057 ft 359 kts
2026-05-07 19:32 49.01036 9.11713 14063 ft 360 kts
2026-05-07 19:32 49.03503 9.12370 14063 ft 361 kts
2026-05-07 19:32 49.05969 9.13028 14064 ft 361 kts
2026-05-07 19:32 49.08458 9.13693 14065 ft 368 kts
2026-05-07 19:33 49.11073 9.14390 14057 ft 392 kts
2026-05-07 19:33 49.13806 9.15122 14061 ft 401 kts
2026-05-07 19:33 49.16553 9.15859 14054 ft 402 kts
2026-05-07 19:33 49.19311 9.16600 14062 ft 403 kts
2026-05-07 19:34 49.22074 9.17343 14058 ft 403 kts
2026-05-07 19:34 49.24822 9.18083 14060 ft 403 kts
2026-05-07 19:34 49.27585 9.18827 14058 ft 403 kts
2026-05-07 19:34 49.30353 9.19574 14060 ft 402 kts
2026-05-07 19:35 49.33110 9.20318 14058 ft 402 kts
2026-05-07 19:35 49.35867 9.21063 14056 ft 402 kts
2026-05-07 19:35 49.38627 9.21810 14059 ft 402 kts
2026-05-07 19:35 49.41384 9.22558 14057 ft 402 kts
2026-05-07 19:36 49.44131 9.23303 14057 ft 402 kts
2026-05-07 19:36 49.46888 9.24052 14065 ft 402 kts
2026-05-07 19:36 49.49642 9.24801 14059 ft 402 kts
2026-05-07 19:36 49.52396 9.25551 14062 ft 402 kts
2026-05-07 19:37 49.55147 9.26300 14062 ft 402 kts
2026-05-07 19:37 49.57895 9.27050 14062 ft 402 kts
2026-05-07 19:37 49.60661 9.27803 14062 ft 402 kts
2026-05-07 19:37 49.63415 9.28556 14060 ft 402 kts
2026-05-07 19:38 49.66161 9.29308 14063 ft 402 kts
2026-05-07 19:38 49.68921 9.30065 14063 ft 402 kts
2026-05-07 19:38 49.71678 9.30823 14065 ft 402 kts
2026-05-07 19:38 49.74425 9.31577 14063 ft 402 kts
2026-05-07 19:39 49.77180 9.32335 14043 ft 401 kts
2026-05-07 19:39 49.79907 9.33082 13810 ft 396 kts
2026-05-07 19:39 49.82645 9.33440 13539 ft 392 kts 356°
2026-05-07 19:39 49.85288 9.32617 13265 ft 388 kts 338°
2026-05-07 19:40 49.87595 9.30527 12997 ft 384 kts 319°
2026-05-07 19:40 49.89339 9.27406 12746 ft 381 kts 301°
2026-05-07 19:40 49.90301 9.23603 12482 ft 379 kts 281°
2026-05-07 19:40 49.90504 9.19538 12235 ft 378 kts 272°
2026-05-07 19:41 49.90702 9.15480 11977 ft 377 kts 277°
2026-05-07 19:41 49.91114 9.11509 11726 ft 376 kts 281°
2026-05-07 19:41 49.91666 9.07587 11456 ft 374 kts 283°
2026-05-07 19:41 49.92304 9.03647 10839 ft 367 kts 284°
2026-05-07 19:42 49.92980 8.99829 10701 ft 369 kts 285°
2026-05-07 19:42 49.93680 8.95998 10627 ft 371 kts 286°
2026-05-07 19:42 49.94391 8.92176 10531 ft 363 kts 286°
2026-05-07 19:42 49.95078 8.88517 10240 ft 346 kts 286°
2026-05-07 19:43 49.95750 8.84947 9526 ft 341 kts 286°
2026-05-07 19:43 49.96412 8.81432 8793 ft 336 kts 286°
2026-05-07 19:43 49.97052 8.78041 8103 ft 332 kts 286°
2026-05-07 19:43 49.97698 8.74579 7457 ft 326 kts 285°
2026-05-07 19:44 49.97953 8.71094 7135 ft 324 kts 265°
2026-05-07 19:44 49.97369 8.67718 7083 ft 325 kts 250°
2026-05-07 19:44 49.96569 8.64476 7067 ft 325 kts 250°
2026-05-07 19:44 49.95771 8.61265 7068 ft 308 kts 250°
2026-05-07 19:45 49.95036 8.58275 7066 ft 285 kts 250°
2026-05-07 19:45 49.94355 8.55486 7081 ft 272 kts 250°
2026-05-07 19:45 49.93690 8.52745 6776 ft 271 kts 250°
2026-05-07 19:45 49.93020 8.49982 6342 ft 269 kts 250°
2026-05-07 19:46 49.92376 8.47318 5864 ft 267 kts 250°
2026-05-07 19:46 49.91728 8.44617 5378 ft 267 kts 250°
2026-05-07 19:46 49.91074 8.41909 4891 ft 267 kts 250°
2026-05-07 19:46 49.90422 8.39217 4403 ft 266 kts 250°
2026-05-07 19:47 49.89772 8.36531 4065 ft 264 kts 250°
2026-05-07 19:47 49.89127 8.33866 3996 ft 265 kts 250°
2026-05-07 19:47 49.88478 8.31191 3999 ft 265 kts 250°
2026-05-07 19:47 49.87832 8.28514 3999 ft 265 kts 250°
2026-05-07 19:48 49.87187 8.25859 3999 ft 265 kts 250°
2026-05-07 19:48 49.86533 8.23178 3996 ft 265 kts 250°
2026-05-07 19:48 49.85884 8.20516 3996 ft 261 kts 250°
2026-05-07 19:48 49.85359 8.17946 3985 ft 241 kts 262°
2026-05-07 19:49 49.85544 8.15455 3994 ft 231 kts 293°
2026-05-07 19:49 49.86498 8.13520 4000 ft 228 kts 324°
2026-05-07 19:49 49.87953 8.12632 4002 ft 227 kts 354°
2026-05-07 19:49 49.89484 8.13041 4001 ft 227 kts 25°
2026-05-07 19:50 49.90765 8.14464 4003 ft 228 kts 41°
2026-05-07 19:50 49.91923 8.16146 4000 ft 228 kts 43°
2026-05-07 19:50 49.93069 8.17863 4000 ft 229 kts 43°
2026-05-07 19:50 49.94198 8.19602 3999 ft 229 kts 47°
2026-05-07 19:51 49.95089 8.21642 4004 ft 230 kts 62°
2026-05-07 19:51 49.95705 8.23932 4000 ft 230 kts 69°
2026-05-07 19:51 49.96247 8.26268 3989 ft 230 kts 69°
2026-05-07 19:51 49.96795 8.28571 3793 ft 226 kts 68°
2026-05-07 19:52 49.97352 8.30866 3471 ft 225 kts 68°
2026-05-07 19:52 49.97886 8.33090 3129 ft 214 kts 69°
2026-05-07 19:52 49.98383 8.35172 2838 ft 199 kts 69°
2026-05-07 19:52 49.98851 8.37126 2578 ft 186 kts 69°
2026-05-07 19:53 49.99293 8.38967 2347 ft 179 kts 69°
2026-05-07 19:53 49.99711 8.40713 2089 ft 166 kts 69°
2026-05-07 19:53 50.00098 8.42332 1865 ft 151 kts 69°
2026-05-07 19:53 50.00446 8.43784 1662 ft 138 kts 69°
2026-05-07 19:54 50.00766 8.45122 1487 ft 127 kts 69°
2026-05-07 19:54 50.01063 8.46367 1319 ft 119 kts 69°
2026-05-07 19:54 50.01351 8.47568 1164 ft 118 kts 69°
2026-05-07 19:54 50.01638 8.48768 1004 ft 118 kts 69°
2026-05-07 19:55 50.01922 8.49954 832 ft 118 kts 69°
2026-05-07 19:55 50.02207 8.51146 671 ft 117 kts 69°
2026-05-07 19:55 50.02493 8.52330 518 ft 116 kts 69°
2026-05-07 19:55 50.02779 8.53508 376 ft 117 kts 69°
2026-05-07 19:56 50.03051 8.54626 354 ft 98 kts 71°
2026-05-07 19:56 50.03213 8.55332 360 ft 40 kts 70°
2026-05-07 19:56 50.03265 8.55528 355 ft 18 kts 66°
2026-05-07 19:56 50.03357 8.55749 358 ft 30 kts 47°
2026-05-07 19:57 50.03515 8.55962 360 ft 29 kts 38°
2026-05-07 19:57 50.03651 8.56157 363 ft 25 kts 55°
2026-05-07 19:57 50.03716 8.56406 365 ft 25 kts 69°
2026-05-07 19:57 50.03780 8.56676 365 ft 27 kts 70°
2026-05-07 19:58 50.03846 8.56953 363 ft 28 kts 70°
2026-05-07 19:58 50.03914 8.57235 369 ft 27 kts 69°
2026-05-07 19:58 50.03978 8.57507 375 ft 27 kts 70°
2026-05-07 19:58 50.04044 8.57783 374 ft 28 kts 70°
2026-05-07 19:59 50.04110 8.58056 378 ft 25 kts 66°
2026-05-07 19:59 50.04225 8.58195 377 ft 18 kts 18°
2026-05-07 19:59 50.04341 8.58172 377 ft 17 kts 340°
2026-05-07 19:59 50.04466 8.58099 373 ft 22 kts 339°
2026-05-07 20:00 50.04539 8.57969 374 ft 9 kts 264°
2026-05-07 20:00 50.04512 8.57891 374 ft 15 kts 245°
2026-05-07 20:00 50.04466 8.57706 374 ft 21 kts 249°
2026-05-07 20:00 50.04405 8.57462 371 ft 27 kts 249°
2026-05-07 20:01 50.04357 8.57271 372 ft 30 kts 250°
2026-05-07 20:01 50.04254 8.56833 372 ft 35 kts 250°
2026-05-07 20:01 50.04167 8.56461 366 ft 37 kts 250°
2026-05-07 20:01 50.04088 8.56123 364 ft 35 kts 250°
2026-05-07 20:02 50.04032 8.55884 362 ft 30 kts 249°
2026-05-07 20:02 50.03958 8.55540 362 ft 13 kts 274°
2026-05-07 20:02 50.03977 8.55475 365 ft 15 kts 312°
2026-05-07 20:02 50.04082 8.55371 362 ft 14 kts 296°
2026-05-07 20:03 50.04070 8.55242 365 ft 13 kts 251°
2026-05-07 20:03 50.04033 8.55081 364 ft 18 kts 249°
2026-05-07 20:03 50.03980 8.54870 367 ft 24 kts 249°
2026-05-07 20:03 50.03917 8.54600 360 ft 25 kts 249°
2026-05-07 20:04 50.03875 8.54447 363 ft 12 kts 228°
2026-05-07 20:04 50.03852 8.54448 359 ft 3 kts 145°
2026-05-07 20:04 50.03805 8.54485 360 ft 7 kts 159°
2026-05-07 20:04 50.03798 8.54489 359 ft 0 kts 159°